Location: Bowden
(51.9167°N, 114.0333°W)
Time: 09:38:01
(UTC+00:00)

Envisat - Pass Details

Date: 14 December 2021
Orbit: 764 x 766 km, 98.2° (Epoch: 28 January)

Event Time Altitude Azimuth Distance (km) Brightness Sun altitude
Rises 14:17:43 0° 6° (N) 3,248 6.1 -11.3°
Reaches altitude 10° 14:20:29 10° 352° (N) 2,316 5.2 -10.9°
Maximum altitude 14:24:18 22° 303° (WNW) 1,637 4.1 -10.4°
Drops below altitude 10° 14:28:07 10° 254° (WSW) 2,305 5.0 -9.8°
Sets 14:30:51 0° 240° (WSW) 3,226 5.9 -9.5°
